www.pogodaiklimat.ru

Погода и климат >> Архив погоды >> Индия >> Panjim


ПОГОДА в Panjim

  • Прогноз погоды в Panjim
  • Монитор погоды в Panjim
  • Климат города

АРХИВ ПОГОДЫ в Panjim

Время (UTC), дата Ветер
(напр.,м/с)
 
Видим.   Явления Облачность Т
(С)
Тd
(С)
f
(%)
Тe
(С)
Тes
(С)
Комфортность P
(гПа)
Po
(гПа)
Тmin
(С)
Tmax
(С)
R
(мм)
R24
(мм)
S
(см)
18 10.10 В 1 4000 м {гроза} 10/8 300 м
[Frnb Ac trans]
+26.0 +24.0 89 +36 +36 очень
душно
1009.0 1009.0
21 10.10 штиль 0 4000 м 10/5 600 м
[Sc Ac trans Ci sp]
+25.0 +23.6 92 +34 +34 очень
душно
1008.1 1008.0
00 11.10 СВ 1 4000 м 9/5 600 м
[Sc Ac trans Ci sp]
+25.0 +23.9 94 +34 +34 очень
душно
1007.9 1008.0
03 11.10 штиль 0 4000 м мгла 8/4 600 м
[Sc diur, vesp Ac trans Ci sp]
+26.4 +24.4 89 +37 +39 очень
душно
1009.5 1010.0 +24.0 +32.8
06 11.10 СЗ 2 4000 м мгла 9/4 600 м
[Sc diur, vesp Ac trans Ci sp]
+32.0 +25.6 69 +47 +53 опасность
перегрева
1009.2 1009.0
09 11.10 СЗ 2 4000 м мгла 10/0
[Ci sp]
+32.4 +25.7 68 +48 +59 опасность
перегрева
1006.8 1007.0
12 11.10 ЮЗ 3 4000 м мгла 10/5 600 м
[Frnb As op Ci sp]
+30.0 +26.1 80 +45 +46 опасность
перегрева
1007.2 1007.0 +25.8 +33.3
15 11.10 С 2 4000 м 9/4 300 м
[Frnb As op Ci sp]
+29.6 +26.0 81 +44 +44 опасность
перегрева
1009.2 1009.0
18 11.10 штиль 0 4000 м 8/4 600 м
[Sc diur, vesp Ac trans Ci sp]
+28.0 +26.1 89 +42 +42 опасность
перегрева
1008.7 1009.0
21 11.10 штиль 0 4000 м 8/3 600 м
[Sc diur, vesp Ac trans Ci sp]
+27.4 +26.0 92 +41 +41 опасность
перегрева
1008.4 1008.0
00 12.10 С 1 4000 м 6/3 600 м
[Sc diur, vesp Ac trans Ci sp]
+27.0 +25.9 94 +40 +40 очень
душно
1008.5 1009.0
03 12.10 З 1 4000 м мгла 9/0
[Ci sp]
+28.8 +26.6 88 +45 +48 опасность
перегрева
1010.9 1011.0 +26.1 +33.3
06 12.10 СЗ 3 4000 м мгла 9/3 600 м
[Sc diur, vesp Ci sp]
+32.4 +26.9 73 +50 +58 опасность
перегрева
1009.8 1010.0
09 12.10 ЮЗ 2 4000 м мгла 6/3 600 м
[Sc diur, vesp Ci sp]
+32.6 +27.1 73 +51 +60 опасность
перегрева
1007.3 1007.0
12 12.10 СЗ 2 4000 м мгла 8/3 600 м
[Sc diur, vesp Ac trans Ci sp]
+30.4 +27.1 83 +48 +49 опасность
перегрева
1006.9 1007.0 +33.3
15 12.10 штиль 0 4000 м 8/4 600 м
[Sc Ci sp]
+29.0 +26.8 88 +45 +45 опасность
перегрева
1009.4 1009.0
18 12.10 штиль 0 4000 м 9/6 600 м
[Sc Ci sp]
+28.2 +26.8 92 +44 +44 опасность
перегрева
1009.4 1009.0
21 12.10 штиль 0 4000 м 8/3 600 м
[Sc diur, vesp Ac trans Ci sp]
+27.6 +26.8 95 +43 +43 опасность
перегрева
1009.2 1009.0
00 13.10 штиль 0 4000 м 6/3 600 м
[Sc diur, vesp Ci sp]
+27.0 +26.5 97 +41 +41 опасность
перегрева
1009.6 1010.0
03 13.10 штиль 0 4000 м туман 9/4 600 м
[Sc diur, vesp Ac trans Ci sp]
+27.8 +26.9 95 +44 +45 опасность
перегрева
1011.2 1011.0 +26.5 +33.3
06 13.10 штиль 0 4000 м мгла {туман} 5/3 600 м
[Sc diur, vesp Ci sp]
+31.6 +26.9 76 +49 +64 опасность
перегрева
1010.8 1011.0
09 13.10 З 2 4000 м мгла ясно +33.0 +26.4 68 +49 +64 опасность
перегрева
1009.2 1009.0
12 13.10 СЗ 2 4000 м мгла 8/3 600 м
[Sc Ac trans Ci sp]
+30.8 +26.7 79 +48 +48 опасность
перегрева
1009.4 1009.0 +33.7
15 13.10 штиль 0 4000 м 9/4 600 м
[Sc Ac trans Ci sp]
+28.0 +23.7 77 +38 +38 очень
душно
1010.6 1011.0
18 13.10 штиль 0 4000 м 9/3 600 м
[Sc Ac trans Ci sp]
+26.8 +23.6 83 +37 +37 очень
душно
1011.0 1011.0
21 13.10 штиль 0 4000 м 6/3 600 м
[Sc Ci sp]
+26.2 +24.5 90 +37 +37 очень
душно
1010.0 1010.0
00 14.10 штиль 0 4000 м 5/3 600 м
[Sc Ci sp]
+25.4 +24.8 96 +36 +36 очень
душно
1010.0 1010.0
03 14.10 штиль 0 2000 м мгла {туман} 4/0
[Ci fib]
+26.8 +25.7 94 +40 +44 очень
душно
1012.5 1013.0 +24.9 +33.7
06 14.10 З 1 4000 м мгла {туман} 5/3 600 м
[Sc Ci sp]
+33.0 +26.7 70 +51 +63 опасность
перегрева
1012.3 1000.0
09 14.10 штиль 0 10 км 4/4 600 м
[Cu Sc]
+32.6 +27.1 73 +35 +46 душно 1009.1 991.8
12 14.10 З 1 4000 м мгла 8/3 600 м
[Sc diur, vesp Ac trans Ci sp]
+31.0 +26.6 77 +47 +48 опасность
перегрева
1009.3 1009.0 +26.2 +33.8
15 14.10 СЗ 1 4000 м 4/0
[Ci sp]
+29.0 +25.1 80 1011.8 1017.2
18 14.10 штиль 0 4000 м 4/0
[Ci sp]
+28.2 +26.3 89 +43 +43 опасность
перегрева
1013.4 1013.0
21 14.10 штиль 0 4000 м 3/0
[Ci sp]
+24.4 +21.1 82 +31 +31 очень
душно
1010.8 993.0
00 15.10 штиль 0 4000 м 3/0
[Ci sp]
+26.4 +25.9 97 +39 +39 очень
душно
1011.7 999.7
03 15.10 В 1 4000 м мгла 9/6 600 м
[Sc Ac trans Ci sp]
+27.0 +26.2 95 +41 +42 опасность
перегрева
1013.0 1013.0 +25.6 +33.8
06 15.10 З 1 4000 м мгла 8/1 600 м
[Sc diur, vesp Ac trans Ci sp]
+32.8 +25.5 66 +48 +58 опасность
перегрева
1013.2 1013.0
09 15.10 З 2 4000 м мгла 4/1 600 м
[Cu hum Ci fib]
+33.0 +25.5 65 +48 +60 опасность
перегрева
1010.6 1011.0
12 15.10 З 1 2000 м мгла {туман} 10/5 600 м
[Sc Ac trans Ci sp]
+30.4 +26.5 80 +47 +47 опасность
перегрева
1010.0 1010.0 +33.7
15 15.10 штиль 0 4000 м 6/3 600 м
[Sc Ac trans Ci sp]
+28.6 +26.4 88 +44 +44 опасность
перегрева
1011.1 1011.0
18 15.10 штиль 0 4000 м 9/5 600 м
[Sc Ac trans Ci sp]
+28.0 +26.6 92 +43 +43 опасность
перегрева
1012.2 1012.0
21 15.10 штиль 0 4000 м 6/3 600 м
[Sc Ac trans Ci sp]
+27.6 +26.2 92 +42 +42 опасность
перегрева
1011.4 1011.0
00 16.10 В 1 4000 м 9/5 600 м
[Sc Ac trans Ci sp]
+27.4 +26.3 94 +42 +42 опасность
перегрева
1010.7 1011.0
03 16.10 штиль 0 2000 м гроза без осадков {туман} 10/8 600 м
[Cb cap Ac trans]
+28.6 +27.3 93 +46 +46 опасность
перегрева
1012.8 1013.0 +26.5 +33.7
06 16.10 штиль 0 2000 м мгла {гроза, туман} 10/4 600 м
[Sc Ac As]
+28.6 +26.4 88 +44 +48 опасность
перегрева
1012.8 1013.0
09 16.10 З 2 4000 м мгла 10/5 600 м
[Sc Ac As]
+29.4 +26.4 84 +45 +47 опасность
перегрева
1009.8 1010.0
12 16.10 З 1 4000 м гроза без осадков 10/5 600 м
[Cb cap Ac As]
+29.0 +26.5 86 +44 +45 опасность
перегрева
1010.7 1011.0 +28.0 +29.8
15 16.10 штиль 0 4000 м гроза без осадков {дождь} 10/8 300 м
[Cb cap Ac As]
+24.4 +23.6 95 +33 +33 очень
душно
1014.3 1014.0 0.4
18 16.10 В 1 4000 м {гроза, дождь} 10/6 300 м
[Frnb Ac trans]
+24.2 +23.9 98 +33 +33 очень
душно
1013.6 1014.0 2
21 16.10 штиль 0 4000 м 10/5 300 м
[Frnb Ac trans Ci sp]
+24.0 +23.5 97 +32 +32 очень
душно
1011.4 1011.0 2
00 17.10 штиль 0 4000 м 10/8 600 м
[Sc Ac trans]
+24.0 +23.7 98 +33 +33 очень
душно
1012.1 1012.0 2
03 17.10 штиль 0 2000 м мгла {туман} 10/1 600 м
[Sc Ac As]
+25.0 +24.5 97 +35 +36 очень
душно
1012.9 1013.0 +23.2 +29.8 2
06 17.10 штиль 0 4000 м мгла {туман} 10/4 600 м
[Sc Ac As]
+28.6 +24.0 76 +40 +43 очень
душно
1013.7 1014.0
09 17.10 ЮЗ 2 4000 м мгла 9/3 600 м
[Cb calv Ac trans Ci sp]
+30.4 +24.4 70 +42 +48 опасность
перегрева
1010.1 1010.0
12 17.10 З 2 4000 м мгла 9/5 600 м
[Cb cap Ac trans Ci sp]
+29.6 +24.8 75 +42 +42 опасность
перегрева
1010.1 1010.0 +24.2 +31.6
15 17.10 СВ 1 4000 м слабая морось {гроза} 10/5 300 м
[Cb cap Ac As]
+25.0 +23.9 94 +34 +34 очень
душно
1012.2 1012.0 0.5

 

Местоположение метеостанции Panjim (Goa, Индия): широта 15.48 долгота 73.82 высота над уровнем моря 60 м.

В архиве по умолчанию представлена погода в Panjim за последнюю неделю. Архивные данные за месяц целиком и за предыдущие месяцы, начиная с января 2011 года, Вы можете получить, выбрав интересующий диапазон дат из раскрывающегося списка и нажав кнопку "Ввод!".


*Определитесь, кто Вы:
робот инопланетянин человек

Внимание! Время в таблицах - всемирное. Для получения местного времени необходимо прибавить поправку, которая в Panjim равна 5.5 ч.

Смотрите также архив погоды в соседних городах и на ближайших метеорологических станциях:

Погода в Mormugao (Goa, Индия) (8 км)
Погода в Vengurla (Maharashtra, Индия) (48 км)
Погода в Karwar (Karnataka, Индия) (85 км)
Погода в Belgaum (Karnataka, Индия) (86 км)
Погода в Belgaum Airport (Karnataka, Индия) (95 км)
Погода в Dharwad (Karnataka, Индия) (124 км)
Погода в Kolhapur (Maharashtra, Индия) (143 км)
Погода в Honavar (Karnataka, Индия) (150 км)
Погода в Sangli (Maharashtra, Индия) (174 км)
Погода в Shirali (Karnataka, Индия) (174 км)

Пояснения к столбцам:

Ветер - указаны скорость ветра в м/с - средняя за 10 мин, порывы в срок и между сроками (в фигурных скобках) и направление, откуда дует ветер: С - северный, СВ - северо-восточный, В - восточный, ЮВ - юго-восточный, Ю - южный, ЮЗ - юго-западный, З - западный, СЗ - северо-западный.
Видимость - горизонтальная дальность видимости в метрах или километрах. При видимости от 1 до 10 км при отсутствии осадков обычно наблюдается дымка, при ухудшении видимости до 1 км и менее - туман. В сухую погоду видимость может ухудшаться дымом, пылью или мглою.
Явления - указаны атмосферные явления, наблюдавшиеся в срок или в последний час перед сроком; фигурными скобками обозначены явления, наблюдавшиеся между сроками (за 1-3 часа до срока); квадратными скобками обозначены град или гололедные отложения с указанием их диаметра в мм.
Облачность - указаны через наклонную черту общая и нижняя облачность в баллах и высота нижней границы облаков в метрах; квадратными скобками обозначены формы облаков: Ci - перистые, Cs - перисто-слоистые, Cc - перисто-кучевые, Ac - высококучевые, As - высокослоистые, Sc - слоисто-кучевые, Ns - слоисто-дождевые, Cu - кучевые, Cb - кучево-дождевые. Подробнее классификацию облаков см. в Атласе облаков (PDF).
T - Температура воздуха - температура, измеренная на высоте 2 м над землей.
Td - Температура точки росы - температура, при понижении до которой содержащийся в воздухе водяной пар достигнет насыщения.
f - Относительная влажность воздуха - влажноcть воздуха, измеренная на высоте 2 м над землей.
Te - Эффективная температура - температура, которую ощущает одетый по сезону человек в тени. Характеристика душности погоды. При расчете учитывается влияние влажности воздуха и скорости ветра на теплоощущения человека.
Tes - Эффективная температура на солнце - температура, которую ощущает человек, с поправкой на солнечный нагрев. Характеристика знойности погоды. Зависит от высоты солнца над горизонтом, облачности и скорости ветра. Ночью, в пасмурную погоду, а также при ветре 12 м/с и более поправка равна нулю.
P - Атмосферное давление - приведенное к уровню моря атмосферное давление.
Po - Атмосферное давление - измеренное на уровне метеостанции атмосферное давление.
Tmin - Минимальная температура - минимум температуры воздуха на высоте 2 м над землей.
Tmax - Максимальная температура - максимум температуры воздуха на высоте 2 м над землей.
R - Количество осадков - Количество выпавших осадков за период времени, мм. При наведении курсора мыши на число - период времени, за который выпало указанное количество осадков.
R24 - Количество осадков - Количество выпавших осадков за 24 часа, мм.
S - Снежный покров - Высота снежного покрова, см. При наведении курсора мыши на число - состояние снежного покрова и степень покрытия местности в баллах.